Regional Weather Roundup
Issued by NWS

Home | Current Version | Previous Version | Text Only | Print | Product List | Glossary On
Versions: 1 2 3 4 5 6 7 8 9 10 11 12 13 14 15 16 17 18 19 20 21 22 23 24 25 26 27 28 29 30 31 32 33 34 35 36 37 38 39 40 41 42 43 44 45 46 47 48 49 50
000
ASUS43 KDMX 122201
RWRIA

WEATHER ROUNDUP FOR IOWA
NATIONAL WEATHER SERVICE DES MOINES IA
400 PM CST TUE DEC 12 2017

NOTE: "FAIR" INDICATES FEW OR NO CLOUDS BELOW 12,000 FEET WITH NO
SIGNIFICANT WEATHER AND/OR OBSTRUCTIONS TO VISIBILITY.

* - THESE STATIONS ARE NOT NWS STATIONS...THUS NOT UNDER NWS
QUALITY CONTROL.  THEY ALSO DO NOT REPORT WEATHER SUCH
AS PRECIPITATION OR FOG.

IAZ001>003-012>014-020>022-031>034-043>046-122300-
   NORTHWEST IOWA

CITY           SKY/WX    TMP DP  RH WIND       PRES   REMARKS
CARROLL *      CLEAR     36  21  55 SW16      30.04F WCI  26
CHEROKEE *     CLEAR     36  24  61 SW12      30.00F WCI  28
DENISON *      CLEAR     36  23  60 SW12      30.06F WCI  27
LE MARS *      PTCLDY    39  28  65 S9        29.99F WCI  33
ORANGE CITY *  CLEAR     39  30  70 SW12      29.98F WCI  32
SHELDON *      CLEAR     37  28  70 SW13G20   29.95F WCI  29
SIOUX CITY     CLEAR     45  28  51 W7        30.02F
SPENCER        PTCLDY    38  25  59 SW13      29.97F WCI  30
STORM LAKE *   CLEAR     36  23  60 SW15      30.00F WCI  26
$$

IAZ055>058-069>071-079>083-090>094-122300-
   SOUTHWEST IOWA

CITY           SKY/WX    TMP DP  RH WIND       PRES   REMARKS
ATLANTIC *     PTCLDY    37  23  56 SW14      30.08F WCI  29
AUDUBON *      CLEAR     36  23  60 SW8       30.06F WCI  29
CLARINDA *     PTCLDY    37  23  56 SW6       30.13  WCI  33
COUNCIL BLFS * CLEAR     39  27  60 SW8       30.07F WCI  34
CRESTON *      CLOUDY    34  19  55 W10       30.11F WCI  26
HARLAN  *      CLEAR     37  23  56 SW9       30.10F WCI  31
LAMONI         CLEAR     34  17  50 W13       30.11F WCI  25
RED OAK *      CLEAR     37  25  60 SW9       30.10F WCI  31
SHENANDOAH *   CLEAR     41  25  52 SW8       30.11F
$$

IAZ047>049-059>061-072>074-084-122300-
   CENTRAL IOWA

CITY           SKY/WX    TMP DP  RH WIND       PRES   REMARKS
AMES           PTCLDY    33  20  58 W10       30.05F WCI  25
ANKENY *       PTCLDY    32  16  51 W7        30.09F WCI  26
BOONE *        CLEAR     34  19  55 W10       30.04F WCI  26
CHARITON *     CLEAR     32  12  43 W10G16    30.09F WCI  24
DES MOINES     PTCLDY    33  16  49 W8        30.08F WCI  26
GRINNELL*      CLOUDY    29   9  41 W9        30.09F WCI  21
KNOXVILLE *    PTCLDY    32   5  32 W12       30.08F WCI  23
MARSHALLTOWN   CLOUDY    29  13  51 W8        30.05F WCI  21
NEWTON *       CLOUDY    30  10  43 W10       30.08F WCI  21
PELLA *        CLOUDY    32   6  33 W7        30.11S WCI  25
PERRY *          N/A     35  19  51 SW9       30.06F WCI  27
$$

IAZ004>006-015-016-023>025-035-036-122300-
   NORTH CENTRAL IOWA

CITY           SKY/WX    TMP DP  RH WIND       PRES   REMARKS
ALGONA *       CLEAR     34  23  64 SW14      29.97F WCI  24
CLARION *      PTCLDY    34  21  60 W14       30.00F WCI  24
ESTHERVILLE    PTCLDY    35  26  69 SW17      29.94F WCI  25
FORT DODGE *   CLEAR     34  21  59 W12       30.02F WCI  25
MASON CITY     CLOUDY    31  19  61 SW12      29.99F WCI  22
FOREST CITY *  MOCLDY    34  25  69 W9        29.97F WCI  26
WEBSTER CITY * CLEAR     34  21  60 W14       30.00F WCI  24
IOWA FALLS *   CLOUDY    33  19  55 SW12      30.04F HAZE    WCI  24
$$

IAZ007>011-017>019-026>030-037>042-050>054-066-122300-
   NORTHEAST IOWA

CITY           SKY/WX    TMP DP  RH WIND       PRES   REMARKS
CEDAR RAPIDS   CLOUDY    26   4  38 W10       30.07F WCI  16
CHARLES CITY * CLOUDY    27  12  54 SW7       30.02F WCI  19
CLINTON *      CLOUDY    25  10  53 W14       30.08F WCI  13
DECORAH *      CLOUDY    21   7  53 VRB7      30.00F WCI  13
DUBUQUE        CLOUDY    21   9  59 W12       30.04F WCI   9
MONTICELLO *   CLOUDY    25   1  36 W12       30.06F WCI  14
OELWEIN *      CLOUDY    25   7  46 W9        30.04F WCI  15
WATERLOO       CLOUDY    27   9  46 SW7       30.04F WCI  19
$$

IAZ064-065-067-068-078-122300-
   EAST CENTRAL IOWA

CITY           SKY/WX    TMP DP  RH WIND       PRES   REMARKS
DAVENPORT      PTCLDY    25   3  38 NW10      30.11F WCI  15
IOWA CITY      CLOUDY    29   2  31 W12       30.12F WCI  19
MT. PLEASANT * MOCLDY    29  -1  27 W9        30.11F WCI  21
MUSCATINE *    MOCLDY    28   1  31 NW9       30.12S WCI  20
QUAD CITIES    CLEAR     28   3  34 W10       30.10S WCI  19
$$

IAZ062-063-075>077-085>089-095>099-122300-
   SOUTHEAST IOWA

CITY           SKY/WX    TMP DP  RH WIND       PRES   REMARKS
BURLINGTON     CLEAR     30   2  30 W9        30.10F WCI  22
FAIRFIELD *    CLOUDY    30  -2  24 W9        30.10F WCI  22
FORT MADISON * CLEAR     30   1  29 W6        30.12S WCI  24
KEOKUK *       CLEAR     32   1  27 W10       30.12S WCI  24
OSKALOOSA *    CLOUDY    31   3  30 W10       30.10F WCI  22
OTTUMWA        CLOUDY    31   2  29 W12       30.10F WCI  22
WASHINGTON *   MOCLDY    28   1  31 W12       30.11F WCI  18
$$

ABBREVIATIONS USED IN REMARKS
   TC - TEMPERATURES IN CELSIUS
  WCI - WIND CHILL INDEX
   HX - HEAT INDEX
  VSB - VISIBILITY
$$




USA.gov is the U.S. government's official web portal to all federal, state and local government web resources and services.